Frederick, OK

5:43 PM CDT on July 26, 2016 (GMT -0500)
Frederick Municipal

Weather History for KFDR - July, 2013

Change the Weather History Date:

Friday, July 12, 2013

  Actual Average (KLTS) Record (KLTS)
Temperature  
Mean Temperature 90 °F -  
Max Temperature 105 °F 95 °F 107 °F (2001)
Min Temperature 75 °F 70 °F 64 °F (1999)
Cooling Degree Days 24    
Growing Degree Days 40 (Base 50)    
Moisture  
Dew Point 62 °F    
Average Humidity 42    
Maximum Humidity 71    
Minimum Humidity 22    
Precipitation  
Precipitation 0.00 in - - ()
Sea Level Pressure  
Sea Level Pressure 29.84 in    
Wind  
Wind Speed 10 mph (SE)    
Max Wind Speed 20 mph    
Max Gust Speed 24 mph    
Visibility 10 miles    
Events      
Averages and records for this station are not official NWS values.
T = Trace of Precipitation, MM = Missing Value Source: NWS Daily Summary

Daily Weather History Graph

Daily Weather History Graph

Search for Another Location

Airport or City:

Trip Planner

Search our weather history database for the weather conditions in past years. The results will help you decide how hot, cold, wet, or windy it might be!

Date:

Astronomy

Jul. 12, 2013 Rise Set
Actual Time 6:33 AM CDT 8:49 PM CDT
Civil Twilight 6:04 AM CDT 9:18 PM CDT
Nautical Twilight 5:29 AM CDT 9:53 PM CDT
Astronomical Twilight 4:50 AM CDT 10:32 PM CDT
Moon 10:38 AM CDT (7/12) 11:15 PM CDT (7/12)
Length of Visible Light 15h 14m
Length of Day
14h 16m
Waxing Crescent, 17% of the Moon is Illuminated
Jul 12
Waxing Crescent
Jul 15
First Quarter
Jul 22
Full
Jul 29
Last Quarter
Aug 6
New

Hourly Weather History & Observations

Time (CDT) Temp. Heat Index Dew Point Humidity Pressure Visibility Wind Dir Wind Speed Gust Speed Precip Events Conditions
12:53 AM 84.9 °F 87.1 °F 66.0 °F 53% 29.86 in 10.0 mi ESE 11.5 mph - N/A   Clear
1:53 AM 82.9 °F 85.4 °F 66.9 °F 58% 29.86 in 10.0 mi ESE 10.4 mph - N/A   Clear
2:53 AM 81.0 °F 83.0 °F 66.0 °F 60% 29.84 in 10.0 mi SE 5.8 mph - N/A   Clear
3:53 AM 79.0 °F - 66.9 °F 66% 29.85 in 10.0 mi ESE 8.1 mph - N/A   Clear
4:53 AM 78.1 °F - 64.9 °F 64% 29.85 in 10.0 mi ESE 6.9 mph - N/A   Clear
5:53 AM 75.9 °F - 64.0 °F 67% 29.85 in 10.0 mi ESE 6.9 mph - N/A   Clear
6:53 AM 75.0 °F - 64.9 °F 71% 29.87 in 10.0 mi East 6.9 mph - N/A   Clear
7:53 AM 78.1 °F - 66.0 °F 66% 29.88 in 10.0 mi ESE 8.1 mph - N/A   Clear
8:53 AM 82.9 °F 85.0 °F 66.0 °F 56% 29.89 in 10.0 mi SE 12.7 mph - N/A   Clear
9:53 AM 88.0 °F 89.6 °F 64.9 °F 46% 29.88 in 10.0 mi South 9.2 mph - N/A   Clear
10:53 AM 93.0 °F 94.6 °F 64.0 °F 38% 29.87 in 10.0 mi Variable 5.8 mph - N/A   Clear
11:53 AM 97.0 °F 97.8 °F 62.1 °F 31% 29.87 in 10.0 mi SW 9.2 mph - N/A   Clear
12:53 PM 99.0 °F 98.6 °F 59.0 °F 26% 29.86 in 10.0 mi Variable 6.9 mph 16.1 mph N/A   Clear
1:53 PM 102.0 °F 102.2 °F 59.0 °F 24% 29.84 in 10.0 mi South 8.1 mph 21.9 mph N/A   Partly Cloudy
2:53 PM 102.9 °F 103.0 °F 57.9 °F 23% 29.83 in 10.0 mi South 11.5 mph 19.6 mph N/A   Partly Cloudy
3:53 PM 104.0 °F 104.0 °F 57.9 °F 22% 29.81 in 10.0 mi SE 8.1 mph 20.7 mph N/A   Partly Cloudy
4:53 PM 102.9 °F 102.4 °F 57.0 °F 22% 29.80 in 10.0 mi SSE 19.6 mph 24.2 mph N/A   Mostly Cloudy
5:53 PM 100.9 °F 100.0 °F 57.0 °F 23% 29.80 in 10.0 mi SE 16.1 mph - N/A   Partly Cloudy
6:53 PM 102.0 °F 101.1 °F 57.0 °F 22% 29.78 in 10.0 mi SE 16.1 mph 20.7 mph N/A   Scattered Clouds
7:53 PM 100.0 °F 99.2 °F 57.0 °F 24% 29.79 in 10.0 mi SE 13.8 mph - N/A   Clear
8:53 PM 96.1 °F 95.2 °F 57.9 °F 28% 29.80 in 10.0 mi SE 12.7 mph - N/A   Clear
9:53 PM 91.9 °F 91.2 °F 59.0 °F 33% 29.81 in 10.0 mi SE 13.8 mph - N/A   Clear
10:53 PM 91.0 °F 90.9 °F 61.0 °F 36% 29.83 in 10.0 mi SE 12.7 mph - N/A   Clear
11:53 PM 88.0 °F 87.9 °F 61.0 °F 40% 29.84 in 10.0 mi SE 11.5 mph - N/A   Clear